{"data":{"norad_id":61764,"epoch":"2026-09-19T21:33:16.095744Z","epoch_age_seconds":66374,"freshness":"FRESH","line1":"1 61764U 24199AF  26262.89810296  .00039048  00000+0  48251-3 0  9996","line2":"2 61764  97.2750 141.1530 0003010 267.4111  92.6801 15.60036423149164","mean_motion":15.60036423,"eccentricity":0.000301,"inclination_deg":97.275,"raan_deg":141.153,"arg_perigee_deg":267.4111,"mean_anomaly_deg":92.6801,"bstar":0.00048251,"rev_number":14916,"period_min":92.30553715091,"perigee_km":385.51529830495,"apogee_km":389.58824294487,"semimajor_km":6765.6887706249,"source":"CELESTRAK","updated_at":"2026-09-20T09:00:45.241130Z"}}